Wind_Speed
33 32 32 32 31 32 33 33 32 30 28 26 24 23 22 21 20 18 17 17 16 16 15 15 15 15 15 15 15 15 15 16 16 17 17 17 16 16 17 17 17 17 17 17
35 34 33 34 32 31 33 34 33 31 30 28 26 25 24 22 20 20 18 18 18 18 18 18 17 16 17 17 16 16 17 18 19 18 18 18 18 18 18 19 19 19 18 19
37 36 35 37 34 33 34 34 34 33 31 29 28 27 25 23 22 20 19 18 19 20 21 21 20 19 18 19 19 19 19 20 21 21 21 21 21 21 20 20 20 20 21 21
38 37 37 35 35 34 34 34 33 32 31 31 29 27 27 26 25 22 22 22 22 21 22 22 21 21 21 22 22 22 22 23 23 23 23 23 23 23 23 23 22 22 22 22
40 39 38 37 35 34 34 34 32 32 31 30 30 29 28 27 27 26 25 25 25 24 23 23 23 23 23 24 24 25 25 24 25 25 26 25 25 26 26 25 24 24 24 23
41 40 40 37 36 36 36 36 34 33 32 31 30 30 28 28 29 28 28 28 27 27 26 26 26 27 27 28 28 27 27 27 27 28 28 27 28 28 27 26 26 26 26 26
41 41 39 37 37 37 37 35 33 33 32 32 31 30 29 30 30 30 30 30 30 30 30 29 28 29 29 30 30 30 29 29 29 29 29 29 30 29 28 28 28 27 27 27
39 40 39 37 37 37 36 34 33 32 32 33 32 31 30 30 31 31 31 31 31 31 31 31 31 31 31 32 31 31 30 30 31 31 31 31 32 31 30 29 29 29 30 29
39 39 38 37 37 36 35 35 34 33 33 33 33 32 31 31 31 32 32 32 33 34 33 33 33 33 33 33 32 32 31 32 32 33 33 33 33 32 32 32 32 31 31 31
38 38 37 36 36 36 36 36 35 34 33 33 33 33 33 33 33 33 33 34 34 35 36 35 35 35 34 34 34 33 33 34 34 34 35 34 33 32 32 32 33 32 32 32
37 37 37 36 35 35 35 35 36 36 35 34 34 34 35 35 35 35 35 36 36 36 37 36 36 36 35 35 35 35 35 36 36 36 36 35 34 34 34 33 33 33 33 34
35 35 35 35 35 35 35 35 35 35 36 36 36 37 37 38 38 38 37 37 37 38 39 39 38 37 36 37 37 36 36 36 36 36 35 34 34 33 34 33 33 34 34 33
34 34 35 34 34 35 35 35 35 35 35 36 37 37 37 37 37 37 38 38 39 39 39 38 38 38 37 37 37 37 37 36 36 36 35 35 35 35 35 35 35 35 35 34
34 34 33 33 33 33 33 34 34 35 35 36 37 37 38 38 37 37 37 38 38 37 36 37 38 38 38 39 39 39 38 38 37 36 36 36 35 35 36 35 35 36 35 35
33 33 33 32 32 32 33 33 34 35 36 36 37 38 38 38 38 38 38 38 38 39 39 39 39 39 39 39 38 39 39 38 37 36 36 36 36 36 36 35 36 36 35 35
32 32 32 32 32 31 32 32 33 34 35 36 37 38 38 38 38 38 38 39 39 39 39 39 40 39 40 40 40 39 39 38 37 36 36 36 37 36 35 35 35 35 35 35
30 31 30 30 30 30 29 30 31 32 34 36 37 37 37 37 37 38 38 39 39 39 39 40 40 40 40 40 40 39 38 38 37 37 37 36 36 36 36 36 36 36 36 35
29 30 30 30 30 30 30 30 31 33 34 35 36 37 36 37 37 38 38 38 39 39 39 38 38 38 39 39 39 38 37 37 37 37 37 36 36 36 36 36 36 36 36 36
30 30 30 30 30 30 30 31 32 33 34 35 35 35 36 36 36 36 37 37 37 37 37 36 35 35 36 36 36 36 36 36 36 36 36 36 36 36 36 36 36 36 36 36
26 27 28 30 30 30 31 31 31 32 33 34 35 36 36 36 36 35 36 36 35 35 34 33 33 33 33 34 34 35 35 35 35 35 35 35 35 35 36 36 36 35 35 34
24 25 26 28 29 29 30 30 31 32 32 32 33 34 34 34 33 34 34 33 32 31 30 30 31 32 32 32 33 33 34 34 34 34 34 34 35 34 34 34 34 34 34 33
23 24 25 26 27 28 28 28 29 29 29 29 30 31 32 32 32 32 31 31 28 27 27 29 30 31 31 30 30 31 31 32 32 32 33 32 31 32 33 32 32 32 32 32
22 23 23 23 24 25 25 25 24 25 25 25 25 26 27 28 28 27 27 27 25 25 25 26 28 29 29 28 28 28 29 29 30 30 30 30 30 30 30 31 31 31 30 30
21 21 21 21 21 22 22 22 21 21 21 20 21 22 23 23 22 22 22 21 22 23 24 24 25 25 26 26 26 26 26 26 27 28 28 29 29 29 28 28 29 29 29 29
18 19 19 20 19 19 19 19 19 19 18 18 18 18 18 18 17 17 17 18 19 20 22 22 22 23 23 23 24 24 24 25 25 27 27 28 28 28 28 29 29 29 29 29
17 17 17 17 16 15 16 16 16 16 16 15 14 14 14 14 14 15 16 17 18 19 19 21 22 22 22 22 22 22 23 24 25 26 26 26 27 27 27 27 27 27 28 28
13 14 14 15 15 15 15 14 14 14 14 13 13 13 13 13 14 15 16 16 17 17 18 19 19 20 20 21 21 22 23 23 24 25 25 26 26 26 26 26 26 27 27 27
Wind_Direction
233 231 232 235 237 238 240 243 248 251 255 258 259 262 263 264 264 261 261 262 265 268 274 277 276 274 276 278 282 287 291 297 299 300 303 307 308 308 311 313 313 314 316 313
234 234 235 236 236 239 240 243 246 249 252 255 258 260 261 261 264 263 262 261 262 264 270 275 278 279 276 275 278 283 288 292 296 298 300 303 305 305 306 308 310 312 314 310
236 237 239 239 237 240 243 245 246 248 250 253 257 260 261 262 263 264 262 261 261 266 274 276 280 282 280 279 276 278 284 288 292 295 296 298 299 301 303 304 307 309 309 309
238 238 240 242 240 241 244 246 248 250 251 253 256 260 260 260 260 262 262 265 268 272 276 276 277 277 276 277 278 279 282 285 288 290 293 294 296 296 298 299 301 303 303 305
239 241 243 243 243 244 247 249 251 253 253 254 256 256 257 260 261 265 265 265 266 267 271 274 273 273 274 276 278 278 280 282 285 287 289 290 292 292 293 294 295 297 299 300
240 241 243 244 245 246 249 251 253 254 255 255 256 255 257 261 262 263 264 264 264 266 267 268 268 270 272 274 276 277 278 280 282 284 286 287 288 288 288 289 291 292 294 295
239 241 243 243 244 246 247 250 252 254 255 255 256 256 256 259 261 261 262 264 265 268 267 264 264 268 269 272 275 275 276 278 281 282 283 284 285 286 286 287 289 290 290 291
238 240 241 243 245 246 248 249 251 253 254 254 255 255 255 257 260 261 262 265 266 267 265 265 265 266 268 272 275 275 276 278 280 280 280 281 284 284 284 285 286 287 287 288
239 241 243 244 245 247 248 248 249 250 252 253 254 255 256 258 261 260 262 264 266 267 267 268 268 269 272 274 275 277 276 278 279 280 281 280 281 283 283 284 285 285 286 286
240 241 242 244 245 246 247 248 248 249 251 253 254 256 258 259 261 261 262 265 267 268 269 268 269 272 274 274 277 277 277 278 279 279 281 281 281 282 283 284 284 284 284 285
240 241 241 242 244 244 246 248 249 250 252 253 254 256 257 257 259 261 263 265 266 267 269 267 270 271 272 274 275 278 279 280 281 281 281 280 280 281 283 283 283 282 282 284
241 241 242 243 244 245 246 248 250 252 253 253 254 255 256 258 260 262 264 266 268 268 267 269 269 270 271 273 275 276 278 280 280 280 280 280 281 281 282 282 282 283 283 283
242 243 243 244 245 247 247 248 250 251 253 254 255 256 258 259 261 263 265 267 268 268 268 269 269 271 272 274 276 276 277 278 280 279 279 278 279 279 280 280 280 280 282 283
241 243 245 247 248 249 249 250 250 252 253 254 256 257 259 260 261 264 265 267 268 268 269 270 271 272 272 272 273 275 276 278 279 280 278 277 277 277 277 277 278 279 279 280
240 241 244 246 247 249 250 251 252 253 253 255 257 258 259 261 263 265 266 268 269 269 270 272 272 272 273 273 274 275 277 277 277 277 277 276 276 275 276 277 278 279 279 279
238 240 243 244 247 250 251 252 253 253 254 255 257 259 260 262 263 265 266 267 268 269 270 270 271 272 272 273 274 275 276 276 276 276 275 275 275 274 275 277 278 279 280 281
237 238 241 243 247 249 252 252 253 256 257 257 259 261 263 264 265 266 267 269 270 270 270 271 271 272 272 273 274 275 275 274 274 273 274 274 274 273 274 276 277 279 281 282
238 239 241 244 248 249 252 254 256 258 260 261 261 263 263 264 266 267 268 269 270 270 271 272 272 272 272 273 273 273 273 272 271 272 273 273 273 273 274 276 278 278 279 282
239 240 242 246 249 252 253 255 259 261 263 264 262 261 262 265 267 268 269 271 271 271 271 272 272 273 273 272 272 272 272 272 272 272 272 273 273 273 274 275 276 276 278 281
241 241 243 246 251 255 258 260 262 263 265 265 263 262 263 266 267 268 269 270 272 271 271 271 272 273 273 271 271 271 271 272 272 272 272 273 274 275 275 276 277 277 279 280
244 247 250 252 252 256 260 263 265 266 267 266 265 264 264 266 267 268 270 271 271 272 272 273 273 273 272 271 270 270 271 271 272 271 271 272 273 274 276 277 278 278 279 279
248 251 254 255 255 258 262 266 267 267 268 266 268 267 267 268 270 270 270 270 270 271 273 274 274 273 272 271 271 272 271 271 271 271 271 273 273 274 276 277 279 279 279 278
250 252 256 260 263 265 266 267 268 268 269 268 269 270 270 271 271 269 269 270 271 272 274 276 275 273 272 272 272 273 274 272 271 272 272 272 274 275 276 278 279 280 280 280
255 256 260 263 266 268 268 267 268 269 268 269 271 271 272 274 273 271 270 270 271 273 274 277 279 278 275 274 273 274 275 276 275 274 273 274 275 277 280 282 282 282 282 281
258 261 263 265 268 267 265 266 267 265 264 270 274 274 275 274 273 274 274 275 276 278 278 280 283 282 281 278 276 275 276 276 277 277 277 277 278 280 281 282 283 284 284 284
260 261 264 266 266 265 265 266 267 264 264 269 272 273 273 274 276 278 278 279 281 282 282 282 283 283 282 280 278 278 279 279 279 278 278 279 280 282 283 283 284 284 284 284
262 263 264 266 265 265 266 266 266 265 264 265 270 271 272 275 279 282 283 285 287 286 286 286 286 285 284 282 281 281 281 281 281 280 280 280 281 283 284 283 282 283 284 285
Height
5849 5853 5856 5859 5862 5864 5867 5870 5873 5876 5878 5882 5884 5886 5887 5888 5889 5890 5891 5891 5892 5892 5892 5892 5892 5891 5891 5891 5891 5890 5889 5888 5887 5886 5885 5884 5883 5881 5880 5878 5876 5874 5871 5869
5841 5845 5848 5851 5855 5858 5861 5864 5866 5869 5872 5876 5878 5880 5882 5883 5884 5885 5885 5886 5887 5887 5888 5888 5887 5887 5886 5886 5886 5886 5885 5884 5884 5882 5881 5880 5879 5877 5876 5874 5872 5870 5868 5866
5834 5837 5840 5843 5848 5851 5854 5857 5860 5863 5867 5870 5872 5874 5876 5877 5878 5879 5880 5881 5881 5882 5882 5883 5883 5882 5881 5881 5881 5881 5880 5880 5879 5878 5877 5875 5874 5872 5871 5870 5868 5866 5864 5862
5826 5830 5832 5839 5841 5844 5847 5850 5853 5856 5860 5863 5865 5868 5869 5871 5872 5873 5874 5875 5876 5876 5876 5876 5876 5876 5876 5876 5875 5875 5875 5875 5874 5873 5872 5870 5868 5867 5866 5864 5863 5861 5859 5857
5818 5821 5824 5830 5833 5837 5840 5843 5846 5849 5852 5855 5858 5860 5863 5865 5866 5867 5868 5869 5869 5870 5870 5870 5869 5870 5869 5869 5869 5868 5868 5868 5867 5866 5865 5864 5862 5861 5859 5858 5857 5855 5854 5851
5809 5813 5816 5824 5827 5829 5833 5835 5839 5842 5844 5847 5850 5853 5856 5858 5859 5860 5861 5861 5862 5862 5862 5862 5862 5862 5863 5862 5862 5861 5861 5860 5860 5859 5858 5857 5855 5854 5852 5851 5850 5849 5847 5845
5800 5804 5809 5815 5818 5821 5826 5829 5832 5834 5837 5839 5842 5845 5848 5849 5851 5852 5853 5853 5854 5854 5853 5854 5854 5854 5855 5854 5853 5853 5853 5852 5852 5851 5850 5849 5848 5846 5845 5844 5843 5842 5840 5839
5792 5796 5803 5806 5810 5814 5817 5821 5823 5826 5828 5831 5833 5836 5838 5840 5842 5843 5844 5845 5845 5845 5845 5845 5846 5846 5846 5846 5845 5844 5844 5844 5843 5843 5841 5840 5839 5838 5837 5836 5835 5834 5832 5831
5784 5790 5794 5798 5802 5805 5808 5812 5815 5818 5820 5823 5825 5828 5829 5831 5833 5834 5835 5836 5836 5837 5837 5836 5836 5836 5836 5836 5835 5835 5835 5835 5834 5833 5832 5830 5829 5829 5828 5827 5826 5825 5823 5822
5775 5780 5785 5789 5793 5796 5799 5803 5806 5809 5812 5814 5817 5819 5821 5822 5823 5824 5826 5826 5826 5827 5827 5827 5827 5826 5826 5826 5826 5825 5826 5825 5825 5823 5822 5821 5820 5819 5818 5818 5816 5815 5814 5813
5766 5771 5775 5780 5783 5787 5790 5794 5797 5800 5803 5805 5807 5809 5811 5813 5814 5815 5816 5816 5816 5816 5816 5816 5816 5815 5816 5816 5816 5816 5816 5815 5814 5813 5812 5811 5810 5809 5808 5807 5806 5805 5804 5802
5758 5762 5766 5770 5774 5778 5781 5785 5788 5790 5793 5796 5798 5800 5802 5803 5804 5806 5806 5806 5806 5806 5806 5806 5807 5807 5806 5806 5805 5806 5806 5805 5804 5803 5802 5800 5799 5799 5798 5797 5796 5795 5793 5792
5750 5753 5757 5761 5765 5768 5772 5775 5778 5781 5783 5786 5788 5790 5792 5793 5794 5795 5796 5796 5796 5795 5795 5795 5796 5796 5796 5796 5795 5795 5795 5795 5794 5793 5792 5791 5790 5789 5788 5787 5785 5784 5783 5782
5742 5746 5749 5753 5756 5759 5762 5765 5768 5771 5773 5776 5778 5780 5781 5783 5784 5785 5785 5785 5785 5784 5784 5785 5785 5785 5785 5785 5785 5784 5784 5783 5783 5782 5781 5780 5779 5778 5777 5776 5775 5774 5772 5771
5735 5738 5742 5745 5748 5751 5754 5756 5759 5761 5764 5766 5768 5769 5771 5772 5773 5774 5774 5774 5774 5774 5774 5774 5774 5774 5774 5773 5773 5772 5772 5771 5771 5770 5769 5768 5767 5767 5766 5765 5764 5763 5762 5761
5728 5731 5734 5737 5740 5743 5745 5747 5749 5752 5753 5755 5757 5758 5760 5760 5761 5762 5762 5762 5763 5763 5763 5763 5762 5762 5762 5761 5760 5760 5759 5759 5758 5758 5757 5756 5756 5755 5754 5754 5753 5752 5751 5750
5720 5724 5727 5730 5732 5734 5736 5738 5740 5742 5743 5745 5746 5747 5749 5749 5750 5751 5751 5751 5750 5750 5750 5750 5750 5749 5749 5748 5748 5747 5747 5747 5746 5745 5745 5745 5744 5744 5743 5743 5742 5741 5740 5739
5713 5716 5719 5722 5724 5726 5728 5730 5731 5733 5734 5735 5736 5737 5738 5738 5739 5739 5739 5739 5738 5738 5738 5737 5737 5736 5736 5736 5735 5735 5735 5735 5734 5734 5734 5733 5733 5733 5732 5732 5731 5731 5730 5729
5706 5709 5711 5714 5716 5718 5720 5721 5722 5723 5724 5724 5725 5726 5727 5728 5728 5728 5728 5727 5727 5726 5726 5725 5724 5724 5723 5723 5723 5723 5724 5723 5723 5723 5722 5722 5722 5721 5721 5720 5720 5720 5719 5718
5699 5701 5703 5706 5708 5709 5711 5712 5712 5713 5714 5714 5715 5715 5716 5716 5717 5717 5717 5716 5715 5715 5714 5713 5713 5712 5712 5712 5712 5712 5712 5712 5712 5712 5711 5711 5711 5711 5710 5710 5709 5709 5708 5707
5692 5695 5696 5698 5700 5701 5702 5702 5703 5703 5703 5704 5704 5705 5705 5706 5706 5706 5706 5705 5704 5703 5703 5702 5702 5701 5701 5701 5701 5701 5701 5701 5701 5701 5701 5701 5700 5700 5700 5699 5699 5698 5698 5697
5686 5688 5689 5690 5692 5693 5693 5693 5693 5693 5694 5694 5695 5695 5695 5696 5696 5696 5695 5695 5695 5693 5693 5692 5692 5691 5690 5690 5690 5690 5690 5690 5690 5691 5691 5690 5690 5690 5690 5689 5689 5688 5687 5686
5680 5681 5682 5683 5684 5684 5684 5684 5684 5685 5685 5686 5686 5686 5687 5687 5686 5686 5686 5686 5685 5685 5684 5684 5682 5682 5681 5681 5681 5681 5681 5681 5681 5681 5681 5681 5681 5681 5680 5680 5679 5678 5677 5676
5673 5674 5675 5676 5676 5677 5677 5677 5677 5678 5678 5678 5678 5678 5679 5678 5678 5678 5678 5678 5678 5677 5677 5676 5675 5674 5673 5673 5673 5673 5673 5673 5673 5672 5672 5672 5672 5671 5671 5670 5670 5668 5667 5666
5667 5667 5668 5669 5670 5670 5671 5671 5671 5671 5672 5672 5672 5672 5672 5672 5672 5672 5672 5671 5671 5670 5670 5669 5668 5667 5666 5666 5666 5666 5666 5665 5665 5664 5664 5664 5663 5663 5662 5661 5660 5659 5658 5657
5661 5662 5662 5663 5664 5664 5665 5666 5666 5666 5667 5667 5667 5667 5667 5667 5667 5667 5666 5666 5665 5664 5663 5663 5662 5661 5660 5660 5659 5659 5658 5658 5657 5656 5656 5655 5655 5654 5654 5653 5652 5651 5650 5648
5657 5657 5658 5658 5659 5660 5660 5661 5662 5662 5662 5663 5663 5663 5663 5663 5663 5663 5662 5661 5660 5659 5659 5658 5657 5656 5654 5653 5653 5652 5651 5650 5650 5649 5648 5647 5646 5646 5645 5644 5643 5642 5641 5640